Regional Weather Roundup
Issued by NWS

Home | Current Version | Previous Version | Graphics & Text | Print | Product List | Glossary Off
Versions: 1 2 3 4 5 6 7 8 9 10 11 12 13 14 15 16 17 18 19 20 21 22 23 24 25 26 27 28 29 30 31 32 33 34 35 36 37 38 39 40 41 42 43 44 45 46 47 48 49 50

000
ASUS43 KMKX 180110
RWRWI

WISCONSIN REGIONAL WEATHER ROUNDUP
NATIONAL WEATHER SERVICE MILWAUKEE/SULLIVAN WI
700 PM CST SAT FEB 17 2018

NOTE: "FAIR" INDICATES FEW OR NO CLOUDS BELOW 12,000 FEET WITH NO
SIGNIFICANT WEATHER AND/OR OBSTRUCTIONS TO VISIBILITY.

WIZ001-002-006>008-014>016-023>028-180200-
NORTHWEST WISCONSIN

CITY           SKY/WX    TMP DP  RH WIND       PRES   REMARKS
SUPERIOR ARPT  FAIR      25  10  51 W14G20    29.93R WCI  13
ASHLAND        FAIR      26  10  50 W12       29.89R WCI  16
HAYWARD        CLOUDY    29  11  47 W8        29.89R WCI  21
SIREN          FAIR      25  10  51 W10       29.96R WCI  15
CUMBERLAND     FAIR      25  10  54 W12G22    29.92R WCI  14
RICE LAKE      FAIR      27  10  48 W7        29.94R WCI  20
CHETEK         FAIR      28  11  49 W7        29.93R WCI  21
LADYSMITH      FAIR      28  13  54 W9        29.91R WCI  19
EAU CLAIRE     FAIR      25  20  81 SW7       29.94R WCI  17
MENOMONIE      FAIR      28  21  77 SW5       29.95R WCI  22
NEW RICHMOND   FAIR      28   9  46 W16       29.97R WCI  15
OSCEOLA        FAIR      27  11  51 NW8       30.00R WCI  19
$$

WIZ003>005-009-010-017-018-180200-
NORTH CENTRAL WISCONSIN

CITY           SKY/WX    TMP DP  RH WIND       PRES   REMARKS
MANITOWISH WTR CLOUDY    25  12  58 W8        29.82R WCI  16
ARBOR VITAE    CLOUDY    29  16  56 W10       29.82R WCI  20
WOODRUFF       CLOUDY    29  16  56 W10       29.82R WCI  20
RHINELANDER    MOCLDY    25  20  81 SW8       29.84R WCI  16
EAGLE RIVER    CLOUDY    26  18  71 W9        29.80R WCI  17
LAND O LAKES   CLOUDY    27  14  59 NW7       29.82R WCI  19
PHILLIPS       CLOUDY    28  12  51 W6        29.85R WCI  21
TOMAHAWK       FLURRIES  24  19  83 CALM      29.86R
MEDFORD        FAIR      21  19  89 SW8       29.88R WCI  12
MERRILL        CLOUDY    24  20  86 SW7       29.89R WCI  16
$$

WIZ029-030-035-036-043>047-180200-
CENTRAL WISCONSIN

CITY           SKY/WX    TMP DP  RH WIND       PRES   REMARKS
WAUSAU         FAIR      24  19  81 W8        29.89R WCI  15
MOSINEE        CLOUDY    25  21  86 SW9       29.91R WCI  15
MARSHFIELD     FAIR      23  19  85 W8        29.91R WCI  14
STEVENS POINT  CLOUDY    25  20  83 W6        29.94R WCI  18
WAUPACA        CLOUDY    29  23  77 W8        29.95R WCI  21
WAUTOMA        CLOUDY    27  22  81 SW8       29.96R WCI  19
WISC RAPIDS    CLOUDY    27  20  75 W8        29.96R WCI  19
CAMP DOUGLAS   CLOUDY    28  22  80 W12       29.99R WCI  17
$$

WIZ011>013-019>022-031-037>040-048>050-180200-
NORTHEAST WISCONSIN

CITY           SKY/WX    TMP DP  RH WIND       PRES   REMARKS
ANTIGO         FAIR      21  18  90 W10       29.87R WCI   9
SHAWANO        CLOUDY    29  22  75 W7        29.93R WCI  22
OCONTO         CLOUDY    26  21  79 W12       29.92R WCI  16
STURGEON BAY   MOCLDY    25  21  85 W15G22    29.90R WCI  13
GREEN BAY      CLOUDY    27  21  78 SW8       29.92R WCI  19
MANITOWOC      CLOUDY    25  22  88 SW9       29.94R WCI  15
APPLETON       MOCLDY    27  19  74 SW12      29.92R WCI  16
CLINTONVILLE   CLOUDY    28  21  76 W8        29.94R WCI  19
OSHKOSH        MOCLDY    27  22  81 VRB6      29.95R WCI  20
$$

WIZ032>034-041-042-053>061-180200-
SOUTHWEST WISCONSIN

CITY           SKY/WX    TMP DP  RH WIND       PRES   REMARKS
LA CROSSE      FAIR      24  19  81 S8        30.02R WCI  15
SPARTA         FAIR      27  23  85 SW3       30.01R
VIROQUA        CLOUDY    27  24  91 W8        29.99R WCI  18
BOSCOBEL       CLOUDY    31  23  72 SW7       30.05R WCI  24
PRAIRIE DU CHI CLOUDY    31  23  73 W6        30.06R WCI  25
PLATTEVILLE    CLOUDY    29  26  88 W10       30.05R WCI  19
$$

WIZ056-057-062-063-064-067-068-180200-
SOUTH CENTRAL WISCONSIN

CITY           SKY/WX    TMP DP  RH WIND       PRES   REMARKS
REEDSBURG      CLOUDY    27  22  81 W8        30.00R WCI  19
BARABOO/DELLS  CLOUDY    27  22  80 W8        29.99R WCI  19
LONE ROCK      CLOUDY    26  22  84 W5        30.04R WCI  20
MINERAL POINT  CLOUDY    30  28  93 W10       30.02R WCI  21
MADISON        CLOUDY    27  22  81 W5        30.01R WCI  22
MIDDLETON      MOCLDY    29  24  81 W8        30.01R WCI  21
WATERTOWN      CLOUDY    28  24  86 W9        29.99R WCI  19
MONROE         CLOUDY    28  23  80 W16       30.02R WCI  17
JANESVILLE     CLOUDY    30  27  86 W12       30.02R WCI  21
$$

WIZ051-052-058>065-066-070>072-180200-
SOUTHEAST WISCONSIN

CITY           SKY/WX    TMP DP  RH WIND       PRES   REMARKS
MILWAUKEE      MOCLDY    30  27  88 W7        29.98R WCI  23
WAUKESHA       CLOUDY    27  25  93 W10       29.99R WCI  17
MILWAUKEE/TIMM PTCLDY    27  21  80 SW7       29.99R WCI  19
RACINE         MOCLDY    31  28  89 W8        30.01R FOG     WCI  23
BURLINGTON     CLOUDY    29  24  81 W12       30.00R WCI  19
KENOSHA        MOCLDY    30  26  85 W10       29.99R FOG     WCI  21
FOND DU LAC    FAIR      27  20  75 SW7       29.97R WCI  19
SHEBOYGAN      CLOUDY    27  23  85 W14       29.95R WCI  16
WEST BEND      CLOUDY    28  27  93 W12       29.97R WCI  18
JUNEAU         CLOUDY    27  22  80 SW9       29.99R WCI  18
$$

LSZ147-162-180200-
LAKE SUPERIOR

STATION/POSITION TIME  TEMP    WIND        PRES    WAVE
                       AIR SEA DIR/SP/G            HT/PER
                 (UTC) (F)     (DEG/KT/KT) (MB)    (FT/S)
DEVILS ISLAND    0000   27     270/ 19/ 22 1011.5R
SAXON HARBOR     0040   28     290/  6/ 11 1011.5R
$$

LMZ867-665-643>646-180200-
LAKE MICHIGAN

STATION/POSITION TIME  TEMP    WIND        PRES    WAVE
                       AIR SEA DIR/SP/G            HT/PER
                 (UTC) (F)     (DEG/KT/KT) (MB)    (FT/S)
NORTHPORT PIER   0040   24                 1011.5R
KEWAUNEE LAKESHO 0048   26     250/ 10/ 14 1012.2R
SHEBOYGAN LAKESH 0000   28     220/  8/  9 1014.6R
PORT WASHINGTON  0040   28     260/  5/  7 1016.3R
MILWAUKEE LAKESH 0050   30     250/  7/  9   N/A
KENOSHA   LAKESH 0000   31        CALM     1015.2
$$

TC  - TEMPERATURE IN CELSIUS
VSB - VISIBILITY IN STATUTE MILES
WCI - WIND CHILL INDEX
HX  - HEAT INDEX




USA.gov is the U.S. government's official web portal to all federal, state and local government web resources and services.